Flag Weather past 2 weeks in Kuala Lumpur, Malaysia

Now
84 °F

Partly sunny.


Feels Like: 94 °F
Forecast: 75 / 89 °F
Wind: 6 mph from Northwest

Location: Sultan Abdul Aziz Shah-Subang

Current Time: Nov 22, 2014 at 11:25:37 AM

Latest Report: Nov 22, 2014 at 10:00 AM


Visibility: N/A

Pressure: 29.86 "Hg

Humidity: 79%

Dew point: 77 °F

Location of Kuala LumpurLocation

Historic Weather in Kuala Lumpur — Graph

°F

Kuala Lumpur temperature yesterday

Maximum temperature yesterday: 91 °F (at 1:00 PM)
Minimum temperature yesterday: 77 °F (at 2:00 AM)
Average temperature yesterday: 82 °F

Past Weeks' High & Low Weather Summary

 TemperatureHumidityPressure
High93 °F (Nov 10, 3:00 PM)100% (Nov 7, 11:00 PM)29.92 "Hg (Nov 7, 11:00 PM)
Low73 °F (Nov 15, 7:00 AM)52% (Nov 19, 12:00 PM)29.71 "Hg (Nov 16, 3:00 PM)
Average81 °F84%29.83 "Hg
* Reported Nov 7 10:00 AM — Nov 22 10:00 AM, Kuala Lumpur, Weather by CustomWeather, © 2014

Note: Actual official high and low records may vary slightly from our data, if they occured in-between our weather recording intervals... More about our weather records

Advertising

Kuala Lumpur weather history for previous 24 hours

 ConditionsComfort  
Time TempWeatherWind HumidityBarometerVisibility
10:00 AM
Nov 22
84 °FPartly sunny.6 mph79%29.86 "HgN/A
9:00 AM82 °FBroken clouds.5 mph84%29.86 "HgN/A
8:00 AM79 °FBroken clouds.2 mph94%29.83 "HgN/A
7:00 AM77 °FBroken clouds.2 mph94%29.80 "HgN/A
6:00 AM77 °FPassing clouds.2 mph100%29.77 "Hg5 mi
5:00 AM77 °FPassing clouds.1 mph100%29.77 "Hg5 mi
4:00 AM79 °FPartly cloudy.No wind94%29.77 "Hg5 mi
3:00 AM79 °FPartly cloudy.1 mph94%29.80 "Hg5 mi
2:00 AM81 °FLight rain. Partly cloudy.2 mph89%29.83 "Hg5 mi
1:00 AM81 °FPartly cloudy.2 mph89%29.83 "Hg4 mi
12:00 AM81 °FPartly cloudy.No wind89%29.86 "Hg4 mi
11:00 PM
Nov 21
81 °FPartly cloudy.1 mph89%29.86 "Hg4 mi
10:00 PM81 °FPartly cloudy.1 mph89%29.83 "Hg4 mi
9:00 PM81 °FPartly cloudy.1 mph89%29.80 "Hg5 mi
8:00 PM81 °FPartly cloudy.1 mph89%29.77 "Hg5 mi
7:00 PM82 °FPassing clouds.2 mph84%29.74 "Hg4 mi
6:00 PM82 °FThunderstorms. Broken clouds.6 mph84%29.74 "Hg4 mi
5:00 PM82 °FThunderstorms. Broken clouds.7 mph89%29.71 "Hg4 mi
4:00 PM81 °FThunderstorms. Broken clouds.2 mph94%29.71 "Hg3 mi
3:00 PM82 °FStrong thunderstorms. More clouds than sun.10 mph89%29.74 "Hg1 mi
2:00 PM90 °FBroken clouds.9 mph71%29.77 "HgN/A
1:00 PM91 °FBroken clouds.6 mph63%29.80 "HgN/A
12:00 PM90 °FBroken clouds.3 mph63%29.83 "HgN/A
11:00 AM88 °FBroken clouds.3 mph66%29.86 "HgN/A
Weather by CustomWeather, © 2014

See weather overviewHow to use our weather pages